YO8RXT-3 Weather Reports


Display with metric or nautical units.
time (UTC)temp
F
wind
direction
speed
MPH
gust
MPH
rain 1hr
in
rain 24hr
in
rain mn
in
humidity
%
barometer
mb
20260506013503 52 110 7.0 0.0 0.00 0.00 0.00 58 1013.0
20260506010503 52 120 8.0 0.0 0.00 0.00 0.00 62 1013.0
20260506003502 52 120 8.0 0.0 0.00 0.00 0.00 67 1013.0
20260506000502 52 120 9.0 0.0 0.00 0.00 0.00 72 1013.0
20260505233503 54 110 10.0 0.0 0.00 0.00 0.00 67 1013.0
20260505230502 54 110 11.0 0.0 0.00 0.00 0.00 67 1013.0
20260505223503 55 110 11.0 0.0 0.00 0.00 0.00 63 1013.0
20260505220503 57 110 11.0 0.0 0.00 0.00 0.00 59 1013.0
20260505213503 57 100 9.0 0.0 0.00 0.00 0.00 59 1013.0
20260505210503 61 90 6.0 0.0 0.00 0.00 0.00 52 1013.0
20260505203502 64 130 3.0 0.0 0.00 0.00 0.00 43 1013.0
20260505200501 66 2.0 0.0 0.00 0.00 0.00 40 1013.0
20260505193502 68 230 3.0 0.0 0.00 0.00 0.00 38 1012.0
20260505190502 68 180 7.0 0.0 0.00 0.00 0.00 38 1012.0
20260505183503 70 180 7.0 0.0 0.00 0.00 0.00 35 1012.0
20260505180501 72 180 5.0 0.0 0.00 0.00 0.00 33 1012.0
20260505173502 72 150 6.0 0.0 0.00 0.00 0.00 31 1012.0
20260505170503 75 120 6.0 0.0 0.00 0.00 0.00 27 1012.0
20260505163503 75 140 6.0 0.0 0.00 0.00 0.00 27 1012.0
20260505160502 77 110 6.0 0.0 0.00 0.00 0.00
20260505150502 79 2.0 0.0 0.00 0.00 0.00 20 1012.0
20260505140502 79 50 6.0 0.0 0.00 0.00 0.00 24 1012.0
20260505123502 79 120 6.0 0.0 0.00 0.00 0.00 23 1013.0
20260505120502 79 150 6.0 0.0 0.00 0.00 0.00 26 1013.0
20260505113502 77 6.0 0.0 0.00 0.00 0.00 24 1014.0
20260505110502 77 140 6.0 0.0 0.00 0.00 0.00 28 1014.0
20260505100502 75 5.0 0.0 0.00 0.00 0.00 29 1014.0
20260505093503 75 5.0 0.0 0.00 0.00 0.00 31 1015.0
20260505090503 73 170 3.0 0.0 0.00 0.00 0.00 36 1015.0
20260505083503 72 2.0 0.0 0.00 0.00 0.00 36 1015.0
20260505080502 70 2.0 0.0 0.00 0.00 0.00 35 1015.0
20260505073503 66 110 6.0 0.0 0.00 0.00 0.00 43 1015.0
20260505070503 64 110 5.0 0.0 0.00 0.00 0.00 46 1015.0
20260505063503 61 90 6.0 0.0 0.00 0.00 0.00 52 1015.0
20260505060503 59 90 6.0 0.0 0.00 0.00 0.00 51 1015.0
20260505053502 57 100 6.0 0.0 0.00 0.00 0.00 55 1015.0
20260505050503 55 90 5.0 0.0 0.00 0.00 0.00 55 1015.0
20260505040503 52 70 6.0 0.0 0.00 0.00 0.00 58 1015.0
20260505033502 52 90 5.0 0.0 0.00 0.00 0.00 54 1015.0
20260505030502 52 90 5.0 0.0 0.00 0.00 0.00 54 1015.0
20260505023503 54 80 5.0 0.0 0.00 0.00 0.00 51 1015.0
20260505020503 0 0.0 0.0 0.00 0.00 0.00